Home > Time Zones > World Clock > Weather > U.S.A. > Adak > Past weeks

Flag for U.S.A. Weather past 2 weeks in Adak, Alaska, U.S.A.

Now
48 °F

Mostly cloudy.


Feels Like: 44 °F
Forecast: 49 / 53 °F
Wind: 10 mph from South

Location: Adak

Current Time: Jul 22, 2014 at 6:13:09 AM

Latest Report: Jul 22, 2014 at 5:36 AM


Visibility: 10 mi

Pressure: 30.15 "Hg

Humidity: 87%

Dew point: 45 °F

Location of AdakLocation

Historic Weather in Adak — Graph

°F

Adak temperature yesterday

Maximum temperature yesterday: 54 °F (at 12:56 PM)
Minimum temperature yesterday: 48 °F (at 12:16 AM)
Average temperature yesterday: 50 °F

Past Weeks' High & Low Weather Summary

 TemperatureHumidityPressure
High57 °F (Jul 12, 2:36 PM)93% (Jul 7, 4:16 AM)30.23 "Hg (Jul 7, 4:16 AM)
Low43 °F (Jul 16, 3:16 AM)58% (Jul 9, 5:16 PM)29.88 "Hg (Jul 7, 6:56 AM)
Average49 °F79%30.11 "Hg
* Reported Jul 7 4:16 AM — Jul 22 4:56 AM, Adak, Weather by CustomWeather, © 2014

Note: Actual official high and low records may vary slightly from our data, if they occured in-between our weather recording intervals... More about our weather records

Advertising

Adak weather history for previous 24 hours

 ConditionsComfort  
Time TempWeatherWind HumidityBarometerVisibility
4:56 AM
Jul 22
48 °FLow clouds.7 mph87%30.15 "Hg10 mi
4:36 AM48 °FLow clouds.3 mph87%30.15 "Hg7 mi
4:16 AM48 °FLow clouds.8 mph87%30.15 "Hg5 mi
3:56 AM48 °FMostly cloudy.10 mph87%30.15 "Hg5 mi
3:36 AM48 °FPartly cloudy.7 mph87%30.15 "Hg5 mi
3:16 AM48 °FMostly cloudy.13 mph82%30.15 "Hg7 mi
2:56 AM48 °FLow clouds.8 mph82%30.15 "Hg10 mi
2:36 AM48 °FMostly cloudy.9 mph82%30.15 "Hg9 mi
2:16 AM48 °FMostly cloudy.9 mph82%30.14 "Hg10 mi
1:56 AM48 °FMostly cloudy.9 mph82%30.15 "Hg10 mi
1:36 AM48 °FLow clouds.9 mph82%30.15 "Hg10 mi
1:16 AM48 °FOvercast.7 mph82%30.14 "Hg10 mi
12:56 AM48 °FOvercast.3 mph82%30.14 "Hg10 mi
12:36 AM48 °FOvercast.5 mph82%30.15 "Hg10 mi
11:56 PM
Jul 21
48 °FMostly cloudy.9 mph82%30.14 "Hg10 mi
11:36 PM48 °FOvercast.9 mph82%30.14 "Hg10 mi
11:16 PM48 °FOvercast.No wind82%30.14 "Hg10 mi
10:56 PM48 °FOvercast.3 mph87%30.13 "Hg10 mi
10:36 PM48 °FPartly sunny.No wind87%30.13 "Hg10 mi
10:16 PM48 °FPartly sunny.No wind87%30.12 "Hg10 mi
9:56 PM50 °FOvercast.8 mph82%30.12 "Hg10 mi
9:36 PM50 °FOvercast.3 mph82%30.11 "Hg10 mi
9:16 PM52 °FOvercast.7 mph82%30.11 "Hg10 mi
8:56 PM50 °FOvercast.8 mph88%30.10 "Hg10 mi
8:36 PM50 °FOvercast.9 mph82%30.10 "Hg10 mi
7:56 PM50 °FOvercast.10 mph88%30.08 "Hg10 mi
7:36 PM50 °FOvercast.15 mph88%30.08 "Hg3 mi
7:16 PM52 °FOvercast.14 mph82%30.07 "Hg10 mi
6:56 PM52 °FMostly cloudy.10 mph82%30.07 "Hg10 mi
6:36 PM52 °FOvercast.9 mph82%30.07 "Hg10 mi
5:56 PM52 °FOvercast.15 mph82%30.06 "Hg7 mi
5:36 PM52 °FLow clouds.14 mph82%30.05 "Hg5 mi
5:16 PM52 °FOvercast.10 mph82%30.05 "Hg3 mi
4:56 PM52 °FMostly cloudy.9 mph82%30.05 "Hg10 mi
4:36 PM52 °FMostly cloudy.15 mph82%30.05 "Hg10 mi
4:16 PM52 °FCloudy.15 mph82%30.04 "Hg10 mi
3:56 PM54 °FCloudy.16 mph77%30.04 "Hg10 mi
3:36 PM52 °FOvercast.16 mph88%30.04 "Hg10 mi
3:16 PM52 °FOvercast.13 mph88%30.04 "Hg7 mi
2:56 PM52 °FOvercast.13 mph88%30.04 "Hg5 mi
2:36 PM52 °FOvercast.13 mph82%30.03 "Hg7 mi
2:16 PM52 °FMostly cloudy.14 mph82%30.03 "Hg10 mi
1:56 PM52 °FMostly cloudy.16 mph82%30.03 "Hg10 mi
1:36 PM54 °FMore clouds than sun.15 mph82%30.02 "Hg10 mi
1:16 PM54 °FMostly cloudy.16 mph82%30.02 "Hg10 mi
12:56 PM54 °FMostly cloudy.15 mph82%30.02 "Hg10 mi
12:36 PM52 °FMostly cloudy.15 mph88%30.02 "Hg10 mi
12:16 PM52 °FMostly cloudy.15 mph88%30.02 "Hg10 mi
11:56 AM52 °FOvercast.12 mph88%30.02 "Hg10 mi
11:36 AM52 °FOvercast.10 mph82%30.02 "Hg9 mi
11:16 AM52 °FOvercast.9 mph82%30.02 "Hg10 mi
10:56 AM52 °FLow clouds.9 mph82%30.02 "Hg10 mi
10:36 AM52 °FLow clouds.5 mph82%30.02 "Hg4 mi
10:16 AM52 °FLow clouds.6 mph82%30.02 "Hg2 mi
9:56 AM52 °FLow clouds.No wind82%30.02 "Hg2 mi
9:36 AM50 °FLow clouds.7 mph88%30.02 "Hg2 mi
9:16 AM50 °FLow clouds.5 mph88%30.02 "Hg2 mi
8:56 AM50 °FLow clouds.3 mph88%30.01 "Hg2 mi
8:36 AM50 °FLow clouds.3 mph88%30.01 "Hg2 mi
8:16 AM48 °FLow clouds.5 mph87%30.00 "Hg1 mi
7:56 AM48 °FLow clouds.3 mph87%30.00 "Hg1 mi
7:36 AM48 °FLow clouds.3 mph87%30.00 "Hg1 mi
7:16 AM48 °FLow clouds.3 mph87%30.00 "Hg1 mi
6:56 AM48 °FLow clouds.No wind87%30.00 "Hg0 mi
6:36 AM48 °FLow clouds.No wind87%30.00 "Hg6 mi
6:16 AM48 °FLow clouds.No wind87%30.00 "Hg4 mi
Weather by CustomWeather, © 2014

See weather overviewHow to use our weather pages